Location: Unspecified
(47.8330°N, 0.0000°E)
Time: 13:24:57
(UTC+00:00)

VELOX 1 - Pass Details

Date: 26 August 2019
Orbit: 629 x 644 km, 98.3° (Epoch: 23 October)

Event Time Altitude Azimuth Distance (km) Brightness Sun altitude
Exits shadow 00:15:37 23° 51° (NE) 1,356 ? -31.5°
Drops below altitude 10° 00:18:32 10° 11° (N) 2,027 ? -31.5°
Sets 00:21:04 0° 357° (N) 2,943 ? -31.4°
